Henderson, KY

7:51 AM CDT on July 19, 2019 (GMT -0500)
Henderson City-County

Weather History for KEHR - May, 2019

Change the Weather History Date:

Sunday, May 19, 2019

  Actual Average Record
Temperature  
Mean Temperature 72 °F -  
Max Temperature 78 °F 79 °F 93 °F (2012)
Min Temperature 66 °F 58 °F 39 °F (2002)
Cooling Degree Days 7    
Growing Degree Days 22 (Base 50)    
Moisture  
Dew Point 66 °F    
Average Humidity 83    
Maximum Humidity 100    
Minimum Humidity 60    
Precipitation  
Precipitation 0.38 in - - ()
Sea Level Pressure  
Sea Level Pressure 29.82 in    
Wind  
Wind Speed 12 mph (SSW)    
Max Wind Speed 28 mph    
Max Gust Speed 31 mph    
Visibility 9 miles    
Events Rain    
Averages and records for this station are not official NWS values.
T = Trace of Precipitation, MM = Missing Value Source: NWS Daily Summary

Daily Weather History Graph

Daily Weather History Graph

Search for Another Location

Airport or City:

Astronomy

May. 19, 2019 Rise Set
Actual Time 5:37 AM CDT 7:57 PM CDT
Civil Twilight 5:08 AM CDT 8:26 PM CDT
Nautical Twilight 4:31 AM CDT 9:03 PM CDT
Astronomical Twilight 3:51 AM CDT 9:43 PM CDT
Moon 8:57 PM CDT 6:22 AM CDT
Length of Visible Light 15h 18m
Length of Day
14h 19m
Full, 99% of the Moon is Illuminated
May 19
Full
May 26
Last Quarter
Jun 3
New
Jun 10
First Quarter
Jun 17
Full

Hourly Weather History & Observations

Time (CDT) Temp. Dew Point Humidity Pressure Visibility Wind Dir Wind Speed Gust Speed Precip Events Conditions
12:56 AM 75.0 °F 60.1 °F 60% 29.80 in 10.0 mi South 10.4 mph 19.6 mph N/A   Clear
1:56 AM 72.0 °F 61.0 °F 68% 29.81 in 10.0 mi WSW 15.0 mph - N/A   Clear
2:56 AM 66.9 °F 63.0 °F 87% 29.79 in 10.0 mi South 9.2 mph - 0.03 in Rain Light Rain
3:56 AM 66.0 °F 63.0 °F 90% 29.78 in 10.0 mi SSE 6.9 mph - 0.01 in Rain Light Rain
4:56 AM 68.0 °F 64.9 °F 90% 29.77 in 10.0 mi South 15.0 mph 19.6 mph 0.00 in   Mostly Cloudy
5:56 AM 69.1 °F 64.9 °F 87% 29.77 in 10.0 mi South 11.5 mph - N/A   Partly Cloudy
6:56 AM 69.1 °F 64.9 °F 87% 29.81 in 10.0 mi SSW 12.7 mph - N/A   Partly Cloudy
7:56 AM 70.0 °F 64.9 °F 84% 29.82 in 10.0 mi SW 12.7 mph 23.0 mph N/A   Partly Cloudy
8:22 AM 69.8 °F 64.4 °F 83% 29.83 in 10.0 mi SSW 13.8 mph - 0.00 in Rain Light Rain
8:56 AM 68.0 °F 66.0 °F 93% 29.83 in 10.0 mi SW 8.1 mph - 0.01 in   Mostly Cloudy
9:56 AM 68.0 °F 66.0 °F 93% 29.81 in 9.0 mi SSW 5.8 mph - 0.02 in Rain Rain
10:07 AM 68.0 °F 66.2 °F 94% 29.82 in 4.0 mi SSW 8.1 mph - 0.11 in Rain Heavy Rain
10:23 AM 66.2 °F 66.2 °F 100% 29.82 in 5.0 mi South 6.9 mph - 0.21 in Rain Light Rain
10:35 AM 66.2 °F 66.2 °F 100% 29.82 in 4.0 mi SSW 9.2 mph - 0.21 in Rain Light Rain
10:56 AM 66.9 °F 64.9 °F 93% 29.82 in 2.5 mi WSW 8.1 mph - 0.28 in Rain Rain
11:25 AM 66.2 °F 66.2 °F 100% 29.84 in 7.0 mi WSW 10.4 mph - 0.03 in Rain Light Rain
11:34 AM 68.0 °F 66.2 °F 94% 29.83 in 10.0 mi WSW 6.9 mph - 0.03 in   Mostly Cloudy
11:41 AM 68.0 °F 66.2 °F 94% 29.83 in 10.0 mi SW 10.4 mph - 0.03 in   Mostly Cloudy
11:56 AM 69.1 °F 66.9 °F 93% 29.81 in 10.0 mi SSW 8.1 mph - 0.03 in   Scattered Clouds
12:17 PM 71.6 °F 66.2 °F 83% 29.81 in 10.0 mi SSW 12.7 mph - N/A   Mostly Cloudy
12:49 PM 73.4 °F 69.8 °F 88% 29.81 in 10.0 mi SSW 12.7 mph 21.9 mph N/A   Mostly Cloudy
12:56 PM 73.9 °F 69.1 °F 85% 29.80 in 10.0 mi SSW 17.3 mph - N/A   Mostly Cloudy
1:40 PM 75.2 °F 66.2 °F 73% 29.80 in 10.0 mi SSW 18.4 mph 28.8 mph N/A   Overcast
1:52 PM 75.2 °F 68.0 °F 78% 29.81 in 10.0 mi SW 16.1 mph 25.3 mph N/A   Overcast
1:56 PM 75.0 °F 66.9 °F 76% 29.80 in 10.0 mi SW 19.6 mph 27.6 mph N/A   Overcast
2:24 PM 75.2 °F 68.0 °F 78% 29.81 in 10.0 mi SSW 17.3 mph 25.3 mph N/A   Mostly Cloudy
2:56 PM 77.0 °F 68.0 °F 74% 29.81 in 10.0 mi SW 27.6 mph 31.1 mph N/A   Scattered Clouds
3:56 PM 77.0 °F 68.0 °F 74% 29.80 in 10.0 mi SSW 18.4 mph - N/A   Scattered Clouds
4:56 PM 78.1 °F 66.0 °F 66% 29.80 in 10.0 mi SSW 20.7 mph 28.8 mph N/A   Partly Cloudy
5:56 PM 77.0 °F 64.9 °F 66% 29.80 in 10.0 mi SW 20.7 mph - N/A   Partly Cloudy
6:56 PM 75.9 °F 66.0 °F 71% 29.81 in 10.0 mi SSW 9.2 mph - N/A   Clear
7:56 PM 73.0 °F 66.0 °F 79% 29.84 in 10.0 mi SW 9.2 mph - N/A   Clear
8:56 PM 72.0 °F 64.9 °F 78% 29.87 in 10.0 mi West 8.1 mph - N/A   Partly Cloudy
9:56 PM 71.1 °F 64.9 °F 81% 29.90 in 10.0 mi West 4.6 mph - N/A   Clear
11:56 PM 66.9 °F 59.0 °F 76% 29.92 in 10.0 mi SW 3.5 mph - N/A   Clear